[Iaude] MPEC B80: 2003 BM4 [a=1.20,e=0.34,i=9.7,H=24.99]

mpec at marsden.cfa.harvard.edu mpec at marsden.cfa.harvard.edu
Sun Jan 21 09:13:02 EST 2024


M.P.E.C. 2024-B80                              Issued 2024 January 21, 14:11 UT

     The Minor Planet Electronic Circulars contain information on unusual
         minor planets, routine data on comets and natural satellites,
         and occasional editorial announcements.  They are published
    on behalf of Division F of the International Astronomical Union by the
          Minor Planet Center, Smithsonian Astrophysical Observatory,
                          Cambridge, MA 02138, U.S.A.
			  
             Prepared using the Tamkin Foundation Computer Network

                              MPC at CFA.HARVARD.EDU
            URL https://www.minorplanetcenter.net/    ISSN 1523-6714

                                    2003 BM4                                    


                           Revision to MPEC 2003-B34                            

Additional Observations:
     K03B04M  C2016 07 29.37266720 05 14.876-21 18 50.98         21.82GVEB080F51
     K03B04M  C2016 07 31.41911020 06 21.608-24 27 37.59         21.47GVEB080F51
     K03B04M  C2016 07 31.43978320 06 21.461-24 29 16.44         20.87GVEB080F51
     K03B04M  C2016 07 31.45012720 06 21.393-24 30 05.55         20.95GVEB080F51
     K03B04M  C2016 08 07.40001620 09 39.656-30 43 47.73         21.70GVEB080F51
     K03B04M  C2016 08 07.41097020 09 39.644-30 44 10.58         21.88GVEB080F51
     K03B04M  C2016 08 07.42195820 09 39.651-30 44 33.43         22.32GVEB080F51
     K03B04M KC2016 08 10.33421720 11 04.970-32 11 55.29         20.10GVEB080F51
     K03B04M  C2024 01 07.53308108 18 37.256+00 33 41.32         21.98GVEB080F51
     K03B04M  C2024 01 07.54444308 18 37.085+00 33 48.24         21.89GVEB080F51
     K03B04M  C2024 01 07.55581308 18 36.901+00 33 55.81         22.39GVEB080F51
     K03B04M  C2024 01 19.46069408 16 46.727+06 14 29.86         21.16wXEB080F52
     K03B04M  C2024 01 19.47198408 16 45.966+06 15 10.28         20.84wXEB080F52
     K03B04M  C2024 01 19.48323008 16 45.232+06 15 50.72         21.29wXEB080F52
     K03B04M  C2024 01 19.55590308 16 40.617+06 20 12.80         20.77GVEB080F52
     K03B04M 1C2024 01 19.92417 08 16 35.57 +06 42 30.9          19.9 VXEB080033
     K03B04M 1C2024 01 19.92561 08 16 35.53 +06 42 36.7          20.1 VXEB080033
     K03B04M 1C2024 01 19.92721 08 16 35.45 +06 42 43.0          20.0 VXEB080033

Observer details:
033 Karl Schwarzschild Observatory, Tautenburg.  Observers S. Melnikov, C.
    Hogner, F. Ludwig, M. Hartmann, B. Stecklum.  Measurer B. Stecklum.
    1.34-m f/3 Schmidt + CCD.
F51 Pan-STARRS 1, Haleakala.  Observers J. Herman, T. Lowe, P. Minguez, A.
    Schultz, I. Smith.  Measurers K. Chambers, T. de Boer, J. Fairlamb, H.
    Gao, M. Huber, C.-C. Lin, E. Magnier, Y. Ramanjooloo, R. Wainscoat, R.
    Weryk.  1.8-m Ritchey-Chretien + CCD.
F52 Pan-STARRS 2, Haleakala.  Observers J. Herman, T. Lowe, P. Minguez, A.
    Schultz, I. Smith.  Measurers K. Chambers, T. de Boer, J. Fairlamb, H.
    Gao, M. Huber, C.-C. Lin, E. Magnier, Y. Ramanjooloo, R. Wainscoat, R.
    Weryk.  1.8-m Ritchey-Chretien + CCD.

First and last observations above in comparison with prediction:
Residuals in seconds of arc (or zero decimals in degrees), reference and Delta-T
160729 F51   56-   12-    240119 033   96-   16-    MPO 41922   -17.4 days

Orbital elements:
2003 BM4                                                 Earth MOID = 0.0200 AU
Epoch 2023 Sept. 13.0 TT = JDT 2460200.5                Veres                   
M 210.52964              (2000.0)            P               Q                  
n   0.75074297     Peri.   84.68533     -0.85387271     +0.50216590             
a   1.1989706      Node   125.38709     -0.51872659     -0.79946909             
e   0.3373274      Incl.    9.66422     -0.04270976     -0.32966435             
P   1.31           H   24.99          G   0.15           U   0                  
Residuals in seconds of arc
030126 699  0.2-  1.1-    030128 651  0.9+  1.2+    030202 J95  0.7-  0.6+
030126 699  0.2+  0.2+    030128 651  1.0+  0.9+    160729 F51  0.1+  0.1+
030126 699  0.9-  0.7-    030128 926  0.2-  0.6-    160731 F51  0.1+  0.3+
030126 699  1.0-  0.9-    030128 926  0.6-  0.1+    160731 F51  0.1+  0.3+
030127 699  0.1+  0.0     030128 926  0.9-  0.7-    160731 F51  0.1+  0.3+
030127 699  1.1+  0.6+    030128 704  0.2+  0.5-    160807 F51  0.0   0.5+
030127 699  0.4+  1.2-    030128 704  1.6+  0.2+    160807 F51  0.2-  0.6+
030127 699  0.1+  0.7+    030128 704  0.8+  0.9+    160807 F51  0.1-  0.5+
030127 704  0.1-  0.1-    030128 704  0.8+  1.3+    160810 F51  0.1-  0.2+
030127 704  1.4-  1.5+    030128 704  0.4+  0.3+    240107 F51  0.1-  0.1+
030127 704  0.6-  0.4+    030129 J95  1.1+  0.2+    240107 F51  0.2-  0.3-
030127 704  0.1+  0.8+    030129 J95  0.3+  0.4-    240107 F51  0.5-  0.0
030127 704  0.2+  0.6+    030129 J95  0.6+  0.6+    240119 F52  0.1+  0.3-
030127 926  0.6+  1.7+    030129 J95  0.0   0.6+    240119 F52  0.0   0.4-
030127 926  0.3-  0.9-    030129 J95  1.0-  0.9-    240119 F52  0.1+  0.4-
030127 926  0.2+  0.7+    030129 J95  0.3-  0.0     240119 F52  0.0   0.0
030128 J95  0.3+  0.2+    030130 J95  0.2+  0.4+    240119 033  0.1+  0.6-
030128 J95  0.0   0.3-    030130 J95  0.7+  0.2-    240119 033  0.7+  0.4-
030128 J95  0.3+  0.3-    030130 J95  0.8-  0.8+    240119 033  0.8+  0.3-
030128 J95  0.6+  0.4-    030202 J95  0.1-  0.4-
030128 651  0.3+  0.8+    030202 J95  0.2-  0.1-

Ephemeris:
2003 BM4                 a,e,i = 1.20, 0.34, 10                  q = 0.7945
Date    TT    R. A. (2000) Decl.     Delta      r    Elong.  Phase     V
2023 12 22    08 13 07.4 +00 07 31   0.2963  1.2250   139.8    31.3    24.1
...
2024 01 06    08 18 28.4 +00 19 32   0.1802  1.1447   151.3    24.3    22.7
...
2024 01 14    08 18 23.7 +02 29 57   0.1242  1.1002   158.8    18.9    21.6
...
2024 01 20    08 16 31.8 +06 48 35   0.08484 1.0665   166.2    12.7    20.5
2024 01 21    08 15 59.4 +07 59 23   0.07852 1.0609   167.7    11.4    20.3
2024 01 22    08 15 21.1 +09 23 03   0.07229 1.0552   169.5     9.8    20.0
...
2024 01 28    08 06 38.3 +27 24 24   0.03756 1.0215   168.5    11.1    18.6
...
2024 02 05    20 54 48.5 +56 10 56   0.02985 0.9773    72.5   105.8    21.2
...
2024 02 20    20 29 52.2 +18 08 50   0.1169  0.9000    38.5   136.9    26.6

A. U. Tomatic                (C) Copyright 2024 MPC           M.P.E.C. 2024-B80





More information about the Iaude mailing list